Regional Weather Roundup
Issued by NWS

Home | Current Version | Previous Version | Text Only | Print | Product List | Glossary Off
Versions: 1 2 3 4 5 6 7 8 9 10 11 12 13 14 15 16 17 18 19 20 21 22 23 24 25 26 27 28 29 30 31 32 33 34 35 36 37 38 39 40 41 42 43 44 45 46 47 48 49 50

000
ASUS45 KSLC 151710
RWRUT

UTAH REGIONAL WEATHER ROUNDUP
NATIONAL WEATHER SERVICE SALT LAKE CITY UT
1100 AM MDT MON SEP 15 2014

UTZ001>011-023>025-151800-

NORTHERN UTAH

CITY           SKY/WX    TMP DP  RH WIND       PRES   REMARKS
HILL AFB       PTSUNNY   74  43  32 E13       30.16R
LOGAN          SUNNY     69  43  38 N6        30.15S
OGDEN          MOSUNNY   75  44  33 S5        30.13S
PROVO AIRPORT  MOSUNNY   72  46  40 VRB5      30.18S
SALT LAKE CITY MOSUNNY   77  41  27 S7        30.11S
VERNAL         SUNNY     71  41  33 S3        30.24F
WENDOVER       MOSUNNY   73  34  23 NE10      30.14R
HEBER CITY     MOSUNNY   64  41  42 CALM      30.24F
WEST JORDAN    SUNNY     77  39  25 S12       30.15S

$$

UTZ012>022-026-027-151800-

SOUTHERN UTAH

CITY           SKY/WX    TMP DP  RH WIND       PRES   REMARKS
BRYCE CANYON   SUNNY     70  42  36 VRB3      30.38S
CEDAR CITY     SUNNY     76  47  35 NE3       30.22S
MILFORD        SUNNY     80  38  22 S12       30.17S
MOAB/CYNLANDS  SUNNY     80  40  23 SE12      30.16R
PRICE          SUNNY     76  31  19 MISG      30.26S
ST GEORGE      MOSUNNY   77  45  31 CALM      30.08S
KANAB            N/A     79  39  24 CALM      30.22F

$$

REGIONAL REPORTS     COLORADO/ARIZONA

CITY           SKY/WX    TMP DP  RH WIND       PRES   REMARKS
CRAIG, CO      MOSUNNY   70  40  33 N5        30.30F
GRAND JUNCTION SUNNY     74  38  27 SE10      30.21S
RIFLE          SUNNY     69  41  36 VRB3      30.28F
MONTROSE       SUNNY     72  44  36 SE6       30.29F
CORTEZ         SUNNY     73  45  36 CALM      30.29S
PAGE, AZ       SUNNY     80  42  25 VRB3      30.15S
GRAND CANYON   SUNNY     75  50  41 VRB3      30.30F
KINGMAN        SUNNY     87  51  28 CALM      30.06S
FLAGSTAFF      SUNNY     73  49  42 E7        30.33R

$$

REGIONAL REPORTS    NEVADA/IDAHO/WYOMING

CITY           SKY/WX    TMP DP  RH WIND       PRES   REMARKS
LAS VEGAS, NV  MOSUNNY   90  46  21 VRB3      29.93S
ELY            MOSUNNY   74  38  27 VRB3      30.25F
ELKO           MOSUNNY   69  29  22 CALM      30.18F
POCATELLO, ID  MOSUNNY   68  36  30 SE5       30.16S
BURLEY         SUNNY     68  44  42 E3        30.12S
EVANSTON, WY   MOSUNNY   66  39  37 CALM      30.32S
ROCK SPRINGS   MOSUNNY   61  34  36 VRB5      30.33F

$$


USA.gov is the U.S. government's official web portal to all federal, state and local government web resources and services.